Regional Weather Roundup
Issued by NWS Sterling, VA

Home | Current Version | Previous Version | Text Only | Print | Product List | Glossary Off
Versions: 1 2 3 4 5 6 7 8 9 10 11 12 13 14 15 16 17 18 19 20 21 22 23 24 25 26 27

000
ASUS41 KLWX 211011
RWRLWX

REGIONAL WEATHER ROUNDUP
NATIONAL WEATHER SERVICE BALTIMORE MD/WASHINGTON DC
600 AM EDT FRI JUL 21 2017

Note: "FAIR" indicates few or no clouds below 12,000 feet
with no significant weather and/or obstructions to visibility.
 TC=TEMPERATURE CELSIUS

 * =Non NWS site. Station does not report precipitation (e.g. rain,
    snow, etc.), thunder, or fog.

DCZ001-MDZ009-015-VAZ040>042-051-053>054-211100-
WASHINGTON METRO

CITY           SKY/WX    TMP DP  RH WIND       PRES   REMARKS
WASHINGTON NAT MOCLDY    82  72  71 SW3       29.93R
DULLES         MOCLDY    73  68  84 CALM      29.94R
ANDREWS AFB    CLEAR     76  69  79 W5        29.92R
FT BELVOIR     PTCLDY    72  69  91 CALM      29.93R
QUANTICO       CLOUDY    77  75  93 NW6       29.93S
COLLEGE PARK*  CLEAR     75  70  85 CALM      29.91S
LEESBURG*      CLEAR     79  72  78 CALM      29.95R
MANASSAS*      CLOUDY    73  72  96 CALM      29.94R
GAITHERSBURG*  CLEAR     72  70  93 CALM      29.96R

$$

MDZ006>007-011-014-211100-
BALTIMORE METRO

CITY           SKY/WX    TMP DP  RH WIND       PRES   REMARKS
BWI AIRPORT    MOCLDY    76  70  82 W5        29.91R
MD SCIENCE CTR   N/A     83  70  64 MISG      29.91R
MARTIN STATE   MOCLDY    79  73  83 CALM      29.92R
ANNAPOLIS      CLEAR     77  74  90 CALM      29.90R
FORT MEADE*    CLEAR     70  68  94 CALM      29.94S

$$

MDZ012-015-019>023-211100-
MARYLAND EASTERN SHORE

CITY           SKY/WX    TMP DP  RH WIND       PRES   REMARKS
OCEAN CITY     PTCLDY    79  75  87 W9        29.91R
SALISBURY      CLEAR     77  75  94 SW6       29.91
BAY BRIDGE AP* CLEAR     82  72  69 W5        29.91R
CAMBRIDGE*     CLEAR     77  73  88 CALM      29.91S
EASTON*        PTCLDY    79  75  89 CALM      29.95R

$$

MDZ017>025-211100-
SOUTHERN MARYLAND

CITY           SKY/WX    TMP DP  RH WIND       PRES   REMARKS
PATUXENT RIVER CLOUDY    77  75  93 SW7       29.91S
ST INIGOES     CLOUDY    77  75  93 CALM      29.91S
LEONARDTOWN*   CLOUDY   N/A N/A N/A CALM      29.94S

$$

MDZ003>005-211100-
NORTH CENTRAL MARYLAND

CITY           SKY/WX    TMP DP  RH WIND       PRES   REMARKS
FREDERICK*     CLEAR     73  72  94 NE3       29.96S
HAGERSTOWN APT CLEAR     79  69  71 W3        29.96R
WESTMINSTER*   CLEAR     79  70  73 CALM      29.96R

$$

MDZ501>502-211100-
WESTERN MARYLAND

CITY           SKY/WX    TMP DP  RH WIND       PRES   REMARKS
OAKLAND*       MOCLDY    66  66 100 W5        30.07R
CUMBERLAND*    CLOUDY    73  70  88 CALM      30.02R

$$

VAZ025>031-211100-
SHENANDOAH VALLEY

CITY           SKY/WX    TMP DP  RH WIND       PRES   REMARKS
WINCHESTER*    CLEAR     68  64  88 CALM      29.97R
FRONT ROYAL*   CLEAR     72  68  88 CALM      29.96R
LURAY*         CLOUDY    70  68  94 CALM      29.98R
NEW MARKET*    CLEAR     68  66  93 CALM      29.98R
STAUNTON*      CLOUDY    71  67  89 CALM      30.02S
WAYNESBORO*    CLOUDY    69  67  93 CALM      30.02R

$$

WVZ021-048>050-054>055-211100-
EASTERN WEST VIRGINIA PANHANDLE

CITY           SKY/WX    TMP DP  RH WIND       PRES   REMARKS
MARTINSBURG    CLEAR     72  67  84 CALM      29.95R
PETERSBURG*    PTCLDY    69  67  96 CALM      30.00R FOG

$$

VAZ036>039-050-211100-
CENTRAL FOOTHILLS

CITY           SKY/WX    TMP DP  RH WIND       PRES   REMARKS
CHARLOTTESVILL PTCLDY    77  68  73 SW3       29.96R
CULPEPER*      CLOUDY    70  70  99 CALM      29.96R FOG
ORANGE*        CLOUDY    70  68  94 CALM      29.95S
GORDONSVILLE*  CLOUDY    70  69  98 CALM      29.95S
WARRENTON*       N/A     70  67  90 CALM      29.94R FOG

$$

VAZ055>057-211100-
NORTH AND CENTRAL PIEDMONT

CITY           SKY/WX    TMP DP  RH WIND       PRES   REMARKS
FREDERICKSBRG* CLOUDY    73  73 100 CALM      29.93R
STAFFORD*      CLOUDY    70  70 100 CALM      29.98R FOG

$$

NCZ024-NYZ072-PAZ021-071-VAZ022-071-211100-
OTHER REGIONAL OBSERVATIONS

CITY           SKY/WX    TMP DP  RH WIND       PRES   REMARKS
NEW YORK CITY  PTCLDY    77  67  71 CALM      29.92R
PHILADELPHIA   PTCLDY    80  69  69 NW3       29.90R
PITTSBURGH     PTCLDY    72  71  97 CALM      29.98S FOG
ROANOKE        CLEAR     74  66  76 NW3       30.04S
RICHMOND       CLOUDY    76  71  85 SW3       29.94R
RALEIGH        PTCLDY    74  72  93 SW6       29.98S

$$

ANZ530>537-211100-
MARINE OBSERVATIONS

STATION/POSITION TIME  TEMP    WIND        PRES
                       AIR SEA DIR/SP/G
                 (UTC) (F)     (DEG/KT/KT) (MB)
THOMAS PT LIGHT  1000   82 82  290/  7/  8   N/A
BALT KEY BRIDGE  0948   82     270/  4/  5 1012.5R
COVE POINT       0948   81     310/  5/  7 1013.5R
LEWISETTA        0948   80 85  260/  6/  7 1013.2R
SOLOMONS ISLAND  0948   81 84  240/  3/  3   N/A
PINEY POINT      0942          260/  5/  7   N/A

$$





USA.gov is the U.S. government's official web portal to all federal, state and local government web resources and services.